Regional Weather Roundup
Issued by NWS

Home | Current Version | Previous Version | Text Only | Print | Product List | Glossary Off
Versions: 1 2 3 4 5 6 7 8 9 10 11 12 13 14 15 16 17 18 19 20 21 22 23 24 25 26 27 28 29 30 31 32 33 34 35 36 37 38 39 40 41 42 43 44 45 46 47 48 49 50

000
ASUS43 KIND 012059
RWRIN

WEATHER ROUNDUP FOR INDIANA
NATIONAL WEATHER SERVICE INDIANAPOLIS IN
500 PM EDT TUE SEP 01 2015

NOTE: "FAIR" INDICATES FEW OR NO CLOUDS BELOW 12,000 FEET WITH NO
SIGNIFICANT WEATHER AND/OR OBSTRUCTIONS TO VISIBILITY.

* - STATION DOES NOT REPORT WEATHER SUCH AS PRECIPITATION OR FOG.

+ - STATION NOT QUALITY CONTROLLED BY THE NATIONAL WEATHER SERVICE.
    USE DATA WITH CAUTION...ESPECIALLY DEWPOINT AND RELATIVE
    HUMIDITY OBSERVATIONS.

INZ001>003-010>013-019-020-012200-
NORTHWEST INDIANA

CITY           SKY/WX    TMP DP  RH WIND       PRES   REMARKS
GARY /AIRPORT/ MOSUNNY   88  68  51 SW10      30.02F
KNOX *+        SUNNY     84  68  58 S9        30.03F
MONTICELLO +   SUNNY     85  69  58 SW7       30.04F
RENSSELAER +   SUNNY     84  73  70 SW7       30.05F

$$

LMZ046-743>745-012200-
SOUTHERN LAKE MICHIGAN

STATION/POSITION TIME  TEMP    WIND        PRES    WAVE
                       AIR SEA DIR/SP/G            HT
                 (UTC) (F)     (DEG/KT/KT) (MB)    (FT)
5NW MICH CITY    2000   77 73  210/  4/  6   N/A     1

$$

INZ004-005-014>016-021>024-012200-
NORTH CENTRAL INDIANA

CITY           SKY/WX    TMP DP  RH WIND       PRES   REMARKS
ELKHART        SUNNY     82  75  78 CALM      30.05F
GOSHEN         MOSUNNY   85  69  58 SW7       30.04F
SOUTH BEND     MOSUNNY   85  72  65 SW12      30.04F
WARSAW +       SUNNY     86  70  58 SW6       30.05F

$$

INZ006>009-017-018-025>027-012200-
NORTHEAST INDIANA

CITY           SKY/WX    TMP DP  RH WIND       PRES   REMARKS
ANGOLA *+      MOSUNNY   84  72  65 CALM      30.06S
FORT WAYNE     MOSUNNY   84  71  65 SW10      30.07F

$$

INZ028-029-035-036-043>045-051>053-012200-
WEST CENTRAL INDIANA

CITY           SKY/WX    TMP DP  RH WIND       PRES   REMARKS
CRAWFORDSVL +  MOSUNNY   82  62  49 SW9       30.09F
GREENCASTLE +  MOSUNNY   82  63  51 SW3       30.10F
LAFAYETTE      MOSUNNY   84  65  52 SW8       30.06S
TERRE HAUTE    SUNNY     87  66  49 SW9       30.08F

$$

INZ030>032-037>040-046>048-054>057-064-065-012200-
CENTRAL INDIANA

CITY           SKY/WX    TMP DP  RH WIND       PRES   REMARKS
FRANKFORT +    SUNNY     86  68  55 S7        30.09F
GREENWOOD *+   PTSUNNY   84  64  51 SW7       30.09F
INDIANAPOLIS   PTSUNNY   85  64  49 S10       30.08F
-EAGLE CREEK   MOSUNNY   83  66  56 SW6       30.07F
KOKOMO *+      SUNNY     88  64  45 SW9       30.06F
MT COMFORT *+  MOSUNNY   82  66  57 CALM      30.09S
SHELBYVILLE    MOSUNNY   85  69  58 SW8       30.08F
ZIONSVILLE +   MOSUNNY   84  66  54 SW7       30.09F

$$

INZ033-034-041-042-049-050-058-059-012200-
EAST CENTRAL INDIANA

CITY           SKY/WX    TMP DP  RH WIND       PRES   REMARKS
MUNCIE         CLOUDY    79  67  66 SW6       30.09F

$$

INZ060-061-067>069-081>083-085>088-012200-
SOUTHWEST INDIANA

CITY           SKY/WX    TMP DP  RH WIND       PRES   REMARKS
EVANSVILLE     SUNNY     90  65  43 W6        30.08F
HUNTINGBURG *+ MOSUNNY   82  70  65 NE3       30.10S

$$

INZ062-063-066-070>080-084-089>092-012200-
SOUTH CENTRAL AND SOUTHEAST INDIANA

CITY           SKY/WX    TMP DP  RH WIND       PRES   REMARKS
BLOOMINGTON    MOSUNNY   86  67  52 W7        30.10F
MADISON *+     SUNNY     86  61  42 CALM      30.12S
SEYMOUR +      MOSUNNY   91  66  43 SW7       30.08F

$$



USA.gov is the U.S. government's official web portal to all federal, state and local government web resources and services.